Regional Weather Roundup
Issued by NWS Upton, NY

Home | Current Version | Previous Version | Text Only | Print | Product List | Glossary On
Versions: 1 2 3 4 5 6 7 8 9 10 11 12 13 14 15 16 17 18 19 20 21 22 23 24 25 26 27
000
ASUS41 KOKX 220409
RWROKX

REGIONAL WEATHER ROUNDUP
NATIONAL WEATHER SERVICE NEW YORK NY
1200 AM EDT TUE AUG 22 2017

NOTE: "FAIR" INDICATES FEW OR NO CLOUDS BELOW 12,000 FEET WITH NO
SIGNIFICANT WEATHER AND/OR OBSTRUCTIONS TO VISIBILITY.

NYZ071-072-176-178-NJZ106-104-220500-
NEW YORK CITY METRO AREA

CITY           SKY/WX    TMP DP  RH WIND       PRES   REMARKS
Central Park   CLEAR     77  70  79 SW7       30.12F
Bronx Bot Gard   N/A     79  68  69 SW5       30.09F
LaGuardia APRT PTCLDY    79  71  76 SW7       30.09S
Kennedy INTL   PTCLDY    75  72  90 SW8       30.11S
Breezy Point     N/A     73 N/A N/A SW6         N/A
Newark/Liberty PTCLDY    76  70  82 SW10      30.09F
Teterboro      CLEAR     78  71  79 SW8       30.08F
$$

NYZ177-179-078>081-220500-
LONG ISLAND NEW YORK

CITY           SKY/WX    TMP DP  RH WIND       PRES   REMARKS
Jones Beach      N/A     73 N/A N/A SW5         N/A
Matinecock PT    N/A     75 N/A N/A SW10        N/A
Farmingdale    CLEAR     75  70  84 SW12      30.10F
MacArthur/ISP  PTCLDY    75  72  90 SW8       30.10S
Shirley        CLEAR     76  73  91 SW6       30.11S
Mt Sinai Harb    N/A     73 N/A N/A S6          N/A
Westhampton    CLEAR     73  70  90 SW10      30.12F
East Hampton   FAIR      72  70  92 SW6       30.10F
Montauk          N/A     74  72  93 SW7       30.11F
$$

NYZ052-065-067-220500-
HUDSON VALLEY

CITY           SKY/WX    TMP DP  RH WIND       PRES   REMARKS
White Plains   PTCLDY    72  69  90 CALM      30.10F
Larchmont Harb   N/A     75 N/A N/A S9          N/A
Croton On Huds   N/A     77 N/A N/A N1          N/A
Newburgh       CLEAR     73  72  94 CALM      30.10F
Montgomery     CLOUDY    72  69  90 CALM      30.08F
Poughkeepsie   CLEAR     71  68  90 CALM      30.07S
Albany         PTCLDY    74  67  78 S6        30.05S
$$

NJZ001-105-106-008-010-013-015-019>022-104-220500-
NEW JERSEY

CITY           SKY/WX    TMP DP  RH WIND       PRES   REMARKS
Newark/Liberty PTCLDY    76  70  82 SW10      30.09F
Teterboro      CLEAR     78  71  79 SW8       30.08F
Caldwell       CLEAR     75  72  90 CALM      30.10S
Somerville     MOCLDY    71  70  96 CALM      30.09S FOG
Linden         FAIR      76  69  79 CALM      30.09F
Perth Amboy      N/A     75 N/A N/A SW5         N/A
Sussex         CLEAR     70  69  97 CALM      30.10F
Andover          N/A     71  69  93 CALM      30.11F
Trenton        PTCLDY    75  71  87 S6        30.11S
Millville      PTCLDY    77  75  93 CALM      30.12F
Atlantic City  PTCLDY    76  73  91 S3        30.12F
Wrightstown    CLOUDY    72  70  92 S3        30.09S
Toms River     CLEAR     73  71  93 S5        30.12F
Belmar         PTCLDY    74  70  87 S6        30.13S
$$

PAZ047>061-062-071-220500-
EASTERN PENNSYLVANIA

CITY           SKY/WX    TMP DP  RH WIND       PRES   REMARKS
Philadelphia   CLOUDY    78  72  81 SW8       30.12S
Allentown      CLEAR     73  69  87 CALM      30.11F
Scranton       PTCLDY    69  68  96 CALM      30.11F
$$

CTZ002-004>006-009-010-012-RIZ004-006-007-MAZ004-011-015-220500-
SOUTHERN NEW ENGLAND
 IN CT

CITY           SKY/WX    TMP DP  RH WIND       PRES   REMARKS
Bradley INTL   PTCLDY    73  65  75 S6        30.08F
Hartford       CLEAR     74  67  78 S5        30.08F
Danbury        CLEAR     73  68  84 CALM      30.11F
Wtrbury/Oxford CLEAR     70  68  93 S3        30.12F
Norwalk Harbor   N/A     75 N/A N/A SW8         N/A
Bridgeport     CLEAR     76  71  85 SW7       30.09S
Meriden        CLEAR     69  66  90 CALM      30.09F
New Haven      CLEAR     75  71  87 CALM      30.10S
Chester        FAIR      72  70  94 VRB7      30.11S
Groton         CLEAR     72  67  84 W3        30.09F
Wilimantic     CLEAR     69  66  90 CALM      30.10S

 IN RI

CITY           SKY/WX    TMP DP  RH WIND       PRES   REMARKS
Providence     PTCLDY    73  66  78 W6        30.09S
Block Island   CLEAR     71  69  93 SW15      30.10F
Westerly       CLEAR     72  69  90 CALM      30.10F
 IN MA

CITY           SKY/WX    TMP DP  RH WIND       PRES   REMARKS
Boston         CLEAR     75  63  66 SW10      30.06S
Worcester      CLOUDY    69  62  78 SW12      30.11S
Westfield      CLEAR     71  66  84 S7        30.07F
Provincetown   CLEAR     69  65  86 SW9       30.08F
Nantucket      CLEAR     66  66 100 SW8       30.11F FOG
$$

ANZ330-335-338-340-345-350-353-355-220500-
COASTAL MARINE OBSERVATIONS


STATION/POSITION TIME  SKY/WX   TEMP    WIND        PRES    VSBY  WAVE
                                AIR SEA DIR/SP/G                  HT/PER
                 (UTC)          (F)     (DEG/KT/KT) (MB)    (MI)  (FT/S)
NY HARB ENTRANCE 0250            76 76  210/ 14/ 17 1018.9          2/ 5
GREAT SOUTH BAY  0330            76 79  230/ 14/ 17   N/A
23 SSW MONTAUK P 0250            74 73              1020.1          2/ 4
15 E BARNEGAT LI 0300               77                N/A           3/ 4
HUDSON CANYON    0250            75 75  220/ 10/ 12 1020.2          2/ 8
KINGS POINT      0330            77 75  230/  9/ 10 1019.0
EXECUTION ROCKS  NOT AVBL
WESTERN LI SOUND NOT AVBL
CENTRAL LI SOUND NOT AVBL
EASTERN LI SOUND NOT AVBL
ROBBINS REEF     0324                   230/  8/ 11 1019.9
$$


>>>>>>>>>>>>>>>>>>>>>>>>>>>> KEY <<<<<<<<<<<<<<<<<<<<<<<<<<<
>                                                          <
>     SKY/WX - Sky Condition/Present Weather               <
>     TMP    - Temperature in Fahrenheit                   <
>     DP     - Dew Point in Fahrenheit                     <
>     RH     - Relative Humidity in Percent                <
>     WIND   - Direction (from) and Speed in MPH           <
>     PRES   - Mean Sea Level Pressure (inches of Hg)      <
>     WCI    - Wind Chill Index                            <
>     VSB    - VISIBILITY IN MILES                         <
>     HX     - HEAT INDEX                                  <
>     TC     - TEMPERATURE IN CELSIUS                      <
>     VRB    - VARIABLE WIND DIRECTION                     <
>                                                          <
>>>>>>>>>>>>>>>>>>>>>>>>>>>> KEY <<<<<<<<<<<<<<<<<<<<<<<<<<<




USA.gov is the U.S. government's official web portal to all federal, state and local government web resources and services.